STARLINK-3339 (50820 NORAD) Tracking and Keplerian Element Data

This shows tracking and keplerian element data for the satellite.

Feedback or suggestion? Click here.




ElementValue
Catalog50820
NameSTARLINK-3339
Epoch Orbit383
Epoch Day22.91667824
Epoch Year2022
RAAN119.7707
Inclination53.2175
Eccentricity0.0001168
Argument of Perigee56.4686
Mean Anonmoly253.6473
Mean Motion15.75189033
Decay Rate-0.00821371
L11 50820U 22001T 22022.91667824 -.00821371 00000+0 -59092-2 0 9991
L22 50820 53.2175 119.7707 0001168 56.4686 253.6473 15.75189033 3839

Live tracking and technical data element details for STARLINK-3339 (NORAD 50820). STARLINK-3339 can be tracked NOW for your location showing map with azimuth and elevation plus other details from your city location.

Track the satellite on the map from your city or location and see movement details for azimuth, elevation, latitude, longitude, range, height, and movement on the map or in text.







IsCatalogInMostPopularTable: catalog: 50820, numindb: 1
Update: records affected: 1



GetName: 50820 STARLINK-3339

Hit Count: updated at: Mon, 24 Jan 2022 01:02:06 GMT